Location: Sungai Bunut
(2.6333°N, 113.7333°E)
Time: 19:35:11
(UTC+00:00)

Sea Lan Dem Rocket - Pass Details

Date: 16 October 2021
Orbit: 552 x 35994 km, 0.6° (Epoch: 07 December)

Event Time Altitude Azimuth Distance (km) Brightness Sun altitude
Exits shadow 19:58:58 22° 109° (ESE) 1,264 4.2 -32.9°
Drops below altitude 10° 20:00:25 10° 101° (ESE) 1,983 5.5 -32.5°
Sets 20:03:06 0° 96° (E) 3,394 7.0 -31.9°
